{"data":{"norad_id":59363,"epoch":"2026-05-25T03:15:02.885184Z","epoch_age_seconds":63576,"freshness":"FRESH","line1":"1 59363U 24060R   26145.13545006  .00000061  00000+0  11757-4 0  9991","line2":"2 59363  43.0015 181.2477 0001157 274.6552  85.4168 15.27575805121838","mean_motion":15.27575805,"eccentricity":0.0001157,"inclination_deg":43.0015,"raan_deg":181.2477,"arg_perigee_deg":274.6552,"mean_anomaly_deg":85.4168,"bstar":1.1757e-5,"rev_number":12183,"period_min":94.267007587227,"perigee_km":482.26781672288,"apogee_km":483.85549809221,"semimajor_km":6861.1986574075,"source":"CELESTRAK","updated_at":"2026-05-25T13:38:18.911434Z"}}